Torna al catalogo

CZ-6A DEB

AttivoSSO
NORAD 55539·DEBRIS·🇨🇳 China

Lanciato Nov 11, 2022 da Taiyuan Satellite Launch Center

Loading…

Prossimi Passaggi (prossime 24 ore)

TLE

AggiornatoSource: Space-Track

Epoca: Sep 14, 2026, 00:00 UTC

1 55539U 22151YM  26257.00025603  .00003848  00000-0  15086-2 0  9991
2 55539  98.8182 277.3471 0067926  81.2705 279.6162 14.28727617193268

Traccia CZ-6A DEB in tempo reale con AllMySat

Download on the App Store